Time,TemperatureF,DewpointF,PressureIn,WindDirection,WindDirectionDegrees,WindSpeedMPH,WindSpeedGustMPH,Humidity,HourlyPrecipIn,Conditions,Clouds,dailyrainin,SoftwareType,DateUTC
2013-02-23 00:05:00,37.7,32.0,30.10,ENE,73,1.0,3.0,81,0.00,,,0.00,weatherlink.com 1.10,2013-02-23 06:05:00,
2013-02-23 00:20:00,37.2,32.0,30.09,NNW,345,0.0,2.0,82,0.00,,,0.00,weatherlink.com 1.10,2013-02-23 06:20:00,
2013-02-23 00:35:00,36.7,32.0,30.10,North,352,0.0,2.0,82,0.00,,,0.00,weatherlink.com 1.10,2013-02-23 06:35:00,
2013-02-23 00:50:00,36.2,31.0,30.10,SW,222,0.0,2.0,82,0.00,,,0.00,weatherlink.com 1.10,2013-02-23 06:50:00,
2013-02-23 01:05:00,35.8,31.0,30.10,WNW,298,2.0,2.0,83,0.00,,,0.00,weatherlink.com 1.10,2013-02-23 07:05:00,
2013-02-23 01:20:00,35.4,31.0,30.10,NNE,23,0.0,1.0,84,0.00,,,0.00,weatherlink.com 1.10,2013-02-23 07:20:00,
2013-02-23 01:35:00,34.7,31.0,30.10,NNE,23,0.0,1.0,85,0.00,,,0.00,weatherlink.com 1.10,2013-02-23 07:35:00,
2013-02-23 01:50:00,34.2,31.0,30.09,NE,36,0.0,1.0,87,0.00,,,0.00,weatherlink.com 1.10,2013-02-23 07:50:00,
2013-02-23 02:05:00,33.9,31.0,30.09,NE,36,0.0,1.0,87,0.00,,,0.00,weatherlink.com 1.10,2013-02-23 08:05:00,
2013-02-23 02:20:00,33.5,30.0,30.08,NNE,23,1.0,1.0,88,0.00,,,0.00,weatherlink.com 1.10,2013-02-23 08:20:00,
2013-02-23 02:35:00,33.1,30.0,30.09,NW,318,0.0,1.0,87,0.00,,,0.00,weatherlink.com 1.10,2013-02-23 08:35:00,
2013-02-23 02:50:00,33.0,30.0,30.10,NNW,328,0.0,2.0,87,0.00,,,0.00,weatherlink.com 1.10,2013-02-23 08:50:00,
2013-02-23 03:05:00,32.8,29.0,30.08,NNE,24,0.0,1.0,87,0.00,,,0.00,weatherlink.com 1.10,2013-02-23 09:05:00,
2013-02-23 03:20:00,32.5,29.0,30.08,NNE,33,0.0,1.0,87,0.00,,,0.00,weatherlink.com 1.10,2013-02-23 09:20:00,
2013-02-23 03:35:00,32.1,29.0,30.07,NE,49,0.0,1.0,87,0.00,,,0.00,weatherlink.com 1.10,2013-02-23 09:35:00,
2013-02-23 03:50:00,31.7,29.0,30.08,NNE,22,0.0,1.0,88,0.00,,,0.00,weatherlink.com 1.10,2013-02-23 09:50:00,
2013-02-23 04:05:00,31.5,28.0,30.08,NE,51,0.0,0.0,88,0.00,,,0.00,weatherlink.com 1.10,2013-02-23 10:05:00,
2013-02-23 04:20:00,31.4,28.0,30.07,ENE,63,0.0,1.0,88,0.00,,,0.00,weatherlink.com 1.10,2013-02-23 10:20:00,
2013-02-23 04:35:00,31.1,28.0,30.07,ENE,59,0.0,0.0,88,0.00,,,0.00,weatherlink.com 1.10,2013-02-23 10:35:00,
2013-02-23 04:50:00,30.9,28.0,30.07,ENE,59,0.0,0.0,89,0.00,,,0.00,weatherlink.com 1.10,2013-02-23 10:50:00,
2013-02-23 05:05:00,30.9,28.0,30.07,NE,53,0.0,2.0,89,0.00,,,0.00,weatherlink.com 1.10,2013-02-23 11:05:00,
2013-02-23 05:20:00,30.8,28.0,30.07,NE,51,0.0,1.0,89,0.00,,,0.00,weatherlink.com 1.10,2013-02-23 11:20:00,
2013-02-23 05:35:00,30.8,28.0,30.07,NE,52,1.0,1.0,89,0.00,,,0.00,weatherlink.com 1.10,2013-02-23 11:35:00,
2013-02-23 05:50:00,30.8,28.0,30.07,NE,44,2.0,2.0,89,0.00,,,0.00,weatherlink.com 1.10,2013-02-23 11:50:00,
2013-02-23 06:05:00,30.5,28.0,30.07,NE,50,2.0,2.0,89,0.00,,,0.00,weatherlink.com 1.10,2013-02-23 12:05:00,
2013-02-23 06:20:00,30.4,28.0,30.07,NE,48,0.0,1.0,90,0.00,,,0.00,weatherlink.com 1.10,2013-02-23 12:20:00,
2013-02-23 06:36:00,30.3,28.0,30.07,ENE,61,0.0,1.0,90,0.00,,,0.00,weatherlink.com 1.10,2013-02-23 12:36:00,
2013-02-23 06:51:00,30.4,28.0,30.07,NNE,33,0.0,2.0,91,0.00,,,0.00,weatherlink.com 1.10,2013-02-23 12:51:00,
2013-02-23 07:06:00,30.8,28.0,30.07,NNE,15,1.0,2.0,90,0.00,,,0.00,weatherlink.com 1.10,2013-02-23 13:06:00,
2013-02-23 07:21:00,31.8,29.0,30.07,NNE,27,2.0,4.0,89,0.00,,,0.00,weatherlink.com 1.10,2013-02-23 13:21:00,
2013-02-23 07:36:00,32.9,29.0,30.07,NE,39,0.0,4.0,86,0.00,,,0.00,weatherlink.com 1.10,2013-02-23 13:36:00,
2013-02-23 07:51:00,33.8,29.0,30.07,NNW,342,0.0,6.0,83,0.00,,,0.00,weatherlink.com 1.10,2013-02-23 13:51:00,
2013-02-23 08:06:00,34.6,29.0,30.08,ENE,57,1.0,8.0,79,0.00,,,0.00,weatherlink.com 1.10,2013-02-23 14:06:00,
2013-02-23 08:21:00,35.2,29.0,30.08,ENE,65,1.0,7.0,77,0.00,,,0.00,weatherlink.com 1.10,2013-02-23 14:21:00,
2013-02-23 08:36:00,35.5,28.0,30.07,ENE,57,0.0,8.0,75,0.00,,,0.00,weatherlink.com 1.10,2013-02-23 14:36:00,
2013-02-23 08:51:00,36.3,28.0,30.06,ENE,57,3.0,4.0,73,0.00,,,0.00,weatherlink.com 1.10,2013-02-23 14:51:00,
2013-02-23 09:06:00,36.2,29.0,30.06,NE,39,0.0,3.0,74,0.00,,,0.00,weatherlink.com 1.10,2013-02-23 15:06:00,
2013-02-23 09:21:00,36.3,28.0,30.07,East,81,1.0,4.0,73,0.00,,,0.00,weatherlink.com 1.10,2013-02-23 15:21:00,
2013-02-23 09:36:00,37.0,29.0,30.09,NE,39,1.0,3.0,72,0.00,,,0.00,weatherlink.com 1.10,2013-02-23 15:36:00,
2013-02-23 09:51:00,38.1,29.0,30.09,NNE,26,0.0,3.0,71,0.00,,,0.00,weatherlink.com 1.10,2013-02-23 15:51:00,
2013-02-23 10:06:00,38.7,29.0,30.08,North,11,1.0,3.0,68,0.00,,,0.00,weatherlink.com 1.10,2013-02-23 16:06:00,
2013-02-23 10:21:00,39.4,29.0,30.08,ENE,64,0.0,2.0,66,0.00,,,0.00,weatherlink.com 1.10,2013-02-23 16:21:00,
2013-02-23 10:36:00,40.4,30.0,30.09,NE,47,3.0,3.0,66,0.00,,,0.00,weatherlink.com 1.10,2013-02-23 16:36:00,
2013-02-23 10:51:00,41.6,31.0,30.08,North,4,0.0,3.0,65,0.00,,,0.00,weatherlink.com 1.10,2013-02-23 16:51:00,
2013-02-23 11:06:00,42.9,31.0,30.08,NNW,328,1.0,4.0,62,0.00,,,0.00,weatherlink.com 1.10,2013-02-23 17:06:00,
2013-02-23 11:21:00,43.4,30.0,30.08,NNW,328,1.0,6.0,60,0.00,,,0.00,weatherlink.com 1.10,2013-02-23 17:21:00,
2013-02-23 11:36:00,44.3,30.0,30.07,West,277,3.0,5.0,58,0.00,,,0.00,weatherlink.com 1.10,2013-02-23 17:36:00,
2013-02-23 11:51:00,44.2,30.0,30.06,SW,236,3.0,5.0,59,0.00,,,0.00,weatherlink.com 1.10,2013-02-23 17:51:00,
2013-02-23 12:06:00,45.1,30.0,30.06,NW,318,1.0,6.0,56,0.00,,,0.00,weatherlink.com 1.10,2013-02-23 18:06:00,
2013-02-23 12:21:00,46.0,31.0,30.05,North,356,0.0,3.0,57,0.00,,,0.00,weatherlink.com 1.10,2013-02-23 18:21:00,
2013-02-23 12:36:00,47.3,31.0,30.05,NW,322,0.0,4.0,54,0.00,,,0.00,weatherlink.com 1.10,2013-02-23 18:36:00,
2013-02-23 12:51:00,47.4,30.0,30.03,ENE,64,1.0,3.0,52,0.00,,,0.00,weatherlink.com 1.10,2013-02-23 18:51:00,
2013-02-23 13:06:00,48.2,31.0,30.02,NW,307,3.0,4.0,52,0.00,,,0.00,weatherlink.com 1.10,2013-02-23 19:06:00,
2013-02-23 13:21:00,49.7,32.0,30.01,West,277,0.0,4.0,50,0.00,,,0.00,weatherlink.com 1.10,2013-02-23 19:21:00,
2013-02-23 13:36:00,49.6,31.0,30.01,SW,229,4.0,6.0,50,0.00,,,0.00,weatherlink.com 1.10,2013-02-23 19:36:00,
2013-02-23 13:52:00,50.9,32.0,30.01,NNE,18,1.0,5.0,49,0.00,,,0.00,weatherlink.com 1.10,2013-02-23 19:52:00,
2013-02-23 14:07:00,51.9,32.0,30.00,East,82,0.0,4.0,46,0.00,,,0.00,weatherlink.com 1.10,2013-02-23 20:07:00,
2013-02-23 14:22:00,52.9,32.0,30.01,NNW,333,1.0,3.0,45,0.00,,,0.00,weatherlink.com 1.10,2013-02-23 20:22:00,
2013-02-23 14:37:00,52.5,30.0,30.00,WSW,252,3.0,5.0,43,0.00,,,0.00,weatherlink.com 1.10,2013-02-23 20:37:00,
2013-02-23 14:52:00,53.3,31.0,30.00,West,277,1.0,3.0,43,0.00,,,0.00,weatherlink.com 1.10,2013-02-23 20:52:00,
2013-02-23 15:07:00,53.0,31.0,29.99,NE,39,1.0,4.0,43,0.00,,,0.00,weatherlink.com 1.10,2013-02-23 21:07:00,
2013-02-23 15:22:00,52.8,30.0,30.00,WNW,285,0.0,5.0,42,0.00,,,0.00,weatherlink.com 1.10,2013-02-23 21:22:00,
2013-02-23 15:37:00,53.3,31.0,29.99,SW,228,1.0,5.0,43,0.00,,,0.00,weatherlink.com 1.10,2013-02-23 21:37:00,
2013-02-23 15:52:00,53.0,31.0,30.00,North,350,5.0,5.0,43,0.00,,,0.00,weatherlink.com 1.10,2013-02-23 21:52:00,
2013-02-23 16:07:00,52.1,30.0,30.00,WNW,285,3.0,9.0,43,0.00,,,0.00,weatherlink.com 1.10,2013-02-23 22:07:00,
2013-02-23 16:22:00,51.9,32.0,30.00,WNW,290,1.0,3.0,46,0.00,,,0.00,weatherlink.com 1.10,2013-02-23 22:22:00,
2013-02-23 16:37:00,51.4,32.0,29.99,NW,312,3.0,3.0,47,0.00,,,0.00,weatherlink.com 1.10,2013-02-23 22:37:00,
2013-02-23 16:52:00,50.7,31.0,30.00,West,280,0.0,4.0,48,0.00,,,0.00,weatherlink.com 1.10,2013-02-23 22:52:00,
2013-02-23 17:07:00,49.5,32.0,30.00,West,276,1.0,6.0,51,0.00,,,0.00,weatherlink.com 1.10,2013-02-23 23:07:00,
2013-02-23 17:22:00,48.6,32.0,30.00,NNW,340,0.0,4.0,53,0.00,,,0.00,weatherlink.com 1.10,2013-02-23 23:22:00,
2013-02-23 17:37:00,47.5,32.0,30.01,North,355,2.0,2.0,55,0.00,,,0.00,weatherlink.com 1.10,2013-02-23 23:37:00,
2013-02-23 17:52:00,46.2,32.0,30.01,NNW,338,1.0,2.0,57,0.00,,,0.00,weatherlink.com 1.10,2013-02-23 23:52:00,
2013-02-23 18:07:00,45.2,31.0,30.02,NE,35,0.0,3.0,59,0.00,,,0.00,weatherlink.com 1.10,2013-02-24 00:07:00,
2013-02-23 18:22:00,44.6,32.0,30.02,NW,310,1.0,2.0,61,0.00,,,0.00,weatherlink.com 1.10,2013-02-24 00:22:00,
2013-02-23 18:37:00,44.0,32.0,30.03,NW,321,0.0,2.0,63,0.00,,,0.00,weatherlink.com 1.10,2013-02-24 00:37:00,
2013-02-23 18:52:00,43.6,32.0,30.02,North,349,0.0,2.0,63,0.00,,,0.00,weatherlink.com 1.10,2013-02-24 00:52:00,
2013-02-23 19:07:00,43.0,31.0,30.03,NW,309,0.0,1.0,64,0.00,,,0.00,weatherlink.com 1.10,2013-02-24 01:07:00,
2013-02-23 19:22:00,42.4,32.0,30.03,WNW,282,0.0,0.0,66,0.00,,,0.00,weatherlink.com 1.10,2013-02-24 01:22:00,
2013-02-23 19:37:00,41.3,31.0,30.04,WNW,283,0.0,0.0,68,0.00,,,0.00,weatherlink.com 1.10,2013-02-24 01:37:00,
2013-02-23 20:07:00,40.1,32.0,30.04,North,357,0.0,0.0,72,0.00,,,0.00,weatherlink.com 1.10,2013-02-24 02:07:00,
2013-02-23 20:22:00,39.3,32.0,30.04,North,357,0.0,0.0,74,0.00,,,0.00,weatherlink.com 1.10,2013-02-24 02:22:00,
2013-02-23 20:37:00,38.5,32.0,30.05,North,357,0.0,0.0,76,0.00,,,0.00,weatherlink.com 1.10,2013-02-24 02:37:00,
2013-02-23 20:52:00,38.0,32.0,30.04,NE,46,0.0,0.0,78,0.00,,,0.00,weatherlink.com 1.10,2013-02-24 02:52:00,
2013-02-23 21:07:00,37.9,32.0,30.05,NE,46,0.0,0.0,78,0.00,,,0.00,weatherlink.com 1.10,2013-02-24 03:07:00,
2013-02-23 21:22:00,38.0,31.0,30.05,NE,46,0.0,0.0,77,0.00,,,0.00,weatherlink.com 1.10,2013-02-24 03:22:00,
2013-02-23 21:37:00,37.0,31.0,30.06,NE,46,0.0,0.0,79,0.00,,,0.00,weatherlink.com 1.10,2013-02-24 03:37:00,
2013-02-23 21:52:00,36.5,31.0,30.06,NE,45,0.0,0.0,81,0.00,,,0.00,weatherlink.com 1.10,2013-02-24 03:52:00,
2013-02-23 22:07:00,36.3,31.0,30.06,NE,45,0.0,0.0,81,0.00,,,0.00,weatherlink.com 1.10,2013-02-24 04:07:00,
2013-02-23 22:22:00,35.4,30.0,30.06,NE,46,0.0,0.0,81,0.00,,,0.00,weatherlink.com 1.10,2013-02-24 04:22:00,
2013-02-23 22:37:00,35.0,31.0,30.06,NE,46,0.0,0.0,84,0.00,,,0.00,weatherlink.com 1.10,2013-02-24 04:37:00,
2013-02-23 22:52:00,34.5,31.0,30.06,NE,46,0.0,0.0,85,0.00,,,0.00,weatherlink.com 1.10,2013-02-24 04:52:00,
2013-02-23 23:07:00,34.6,31.0,30.05,NE,46,0.0,0.0,85,0.00,,,0.00,weatherlink.com 1.10,2013-02-24 05:07:00,
2013-02-23 23:22:00,34.2,31.0,30.05,NE,46,0.0,0.0,86,0.00,,,0.00,weatherlink.com 1.10,2013-02-24 05:22:00,
2013-02-23 23:37:00,34.1,30.0,30.05,NE,46,0.0,0.0,85,0.00,,,0.00,weatherlink.com 1.10,2013-02-24 05:37:00,
2013-02-23 23:53:00,33.5,30.0,30.05,NE,46,0.0,0.0,87,0.00,,,0.00,weatherlink.com 1.10,2013-02-24 05:53:00,